Regional Weather Roundup
Issued by NWS

Home | Current Version | Previous Version | Text Only | Print | Product List | Glossary Off
Versions: 1 2 3 4 5 6 7 8 9 10 11 12 13 14 15 16 17 18 19 20 21 22 23 24 25 26 27 28 29 30 31 32 33 34 35 36 37 38 39 40 41 42 43 44 45 46 47 48 49 50

000
ASUS43 KLOT 241800
RWRIL

ILLINOIS REGIONAL WEATHER ROUNDUP
NATIONAL WEATHER SERVICE CHICAGO/ROMEOVILLE IL
100 PM CDT FRI OCT 24 2014

NOTE: "FAIR" INDICATES FEW OR NO CLOUDS BELOW 12,000 FEET WITH NO
SIGNIFICANT WEATHER AND/OR OBSTRUCTIONS TO VISIBILITY.

* THESE STATIONS ARE NOT UNDER NWS QUALITY CONTROL. THEY ALSO MAY NOT
  REPORT WEATHER SUCH AS PRECIPITATION OR FOG.

ILZ001-002-007-009-015-016-024-241900-
NORTHWEST ILLINOIS

CITY           SKY/WX    TMP DP  RH WIND       PRES   REMARKS
MOLINE         MOSUNNY   64  53  67 S10       30.02F
6HR MIN TEMP:  50; 6HR MAX TEMP:  64;

STERLING*      CLOUDY    54  50  87 S6        30.04F
$$

ILZ003-004-008-010-011-017-018-241900-
NORTH CENTRAL ILLINOIS

CITY           SKY/WX    TMP DP  RH WIND       PRES   REMARKS
ROCKFORD       CLOUDY    54  50  86 SW7       30.05F FOG
6HR MIN TEMP:  47; 6HR MAX TEMP:  54; 6HR PCP: TRACE;

$$

ILZ005-006-012>014-019>023-241900-
NORTHEAST ILLINOIS

CITY           SKY/WX    TMP DP  RH WIND       PRES   REMARKS
CHICAGO-OHARE  PTSUNNY   62  48  60 SW3       30.01F
6HR MIN TEMP:  52; 6HR MAX TEMP:  62;

CHICAGO-MIDWAY PTSUNNY   63  50  62 SW6       30.02F
6HR MIN TEMP:  54; 6HR MAX TEMP:  64;

AURORA         PTSUNNY   64  50  60 VRB5      30.03F
6HR MIN TEMP:  46; 6HR MAX TEMP:  64;

WAUKEGAN       PTSUNNY   61  51  70 VRB3      30.01F
6HR MIN TEMP:  49; 6HR MAX TEMP:  61;

DUPAGE AIRPORT PTSUNNY   65  49  56 W6        30.02F
6HR MIN TEMP:  50; 6HR MAX TEMP:  65;

WHEELING       PTSUNNY   64  49  57 VRB6      30.03F
6HR MIN TEMP:  52; 6HR MAX TEMP:  64;

NORTHERLY ISL    N/A     56  50  80 E8          N/A
$$

LMZ740>746-241900-
SOUTHERN LAKE MICHIGAN

STATION/POSITION SKY/WX   TEMP    WIND        PRES    VSBY  WAVE
                          AIR SEA DIR/SP/G                  HT/PER
                          (F)     (DEG/KT/KT) (MB)    (MI)  (FT/S)
SOUTHERN BUOY              52 54  240/  8/ 10 1017.5F         1
WAUKEGAN HARBOR            56     120/  4/  5   N/A
HARRISON CRIB              55     100/  5/  6   N/A
BURNHAM HARBOR             57      90/  5/  6   N/A
CALUMET HARBOR             61     250/  5/  8 1015.7F
MICHIGAN CITY              54     240/  5/  5   N/A
$$

ILZ025>027-034>036-040-047-049-050-058-095>099-241900-
WEST-CENTRAL ILLINOIS

CITY           SKY/WX    TMP DP  RH WIND       PRES   REMARKS
QUINCY         CLOUDY    57  56  96 SW10      30.07F FOG
$$

ILZ028>032-037-038-041>044-048-051>054-059>061-241900-
CENTRAL ILLINOIS

CITY           SKY/WX    TMP DP  RH WIND       PRES   REMARKS
DECATUR        PTSUNNY   64  56  75 SW7       30.07F
PEORIA         MOSUNNY   63  53  70 SW6       30.06F
6HR MIN TEMP:  46; 6HR MAX TEMP:  63;

SPRINGFIELD    CLOUDY    59  55  87 SW5       30.09F FOG
6HR MIN TEMP:  54; 6HR MAX TEMP:  59;

TAYLORVILLE    NOT AVBL
$$

ILZ033-039-045-046-055>057-062-063-241900-
EAST-CENTRAL ILLINOIS

CITY           SKY/WX    TMP DP  RH WIND       PRES   REMARKS
CHAMPAIGN      MOSUNNY   65  53  65 SW7       30.06F
MATTOON        MOSUNNY   65  53  65 VRB3      30.06F
$$

ILZ079-100>102-241900-
SOUTHWEST ILLINOIS

CITY           SKY/WX    TMP DP  RH WIND       PRES   REMARKS
BELLEVILLE     PTSUNNY   66  59  77 VRB2      30.09F
CAHOKIA*       SUNNY     67  55  65 SW5       30.08F
$$

ILZ064>066-069>071-074>076-080>082-084>086-088>090-092>094-241900-
SOUTH-CENTRAL ILLINOIS

CITY           SKY/WX    TMP DP  RH WIND       PRES   REMARKS
CARBONDALE     CLOUDY    65  55  70 W6        30.11F
6HR MIN TEMP:  52; 6HR MAX TEMP:  67;

MARION         PTSUNNY   68  57  68 NW6       30.11F
MT. VERNON     MOSUNNY   68  57  68 SW7       30.09F
$$

ILZ067-068-072-073-078-083-087-091-241900-
SOUTHEAST ILLINOIS

CITY           SKY/WX    TMP DP  RH WIND       PRES   REMARKS
LAWRENCEVILLE  SUNNY     68  52  56 VRB7      30.08F
$$

ABBREVIATIONS USED IN REMARKS
   TC - TEMPERATURE IN CELSIUS
  WCI - WIND CHILL INDEX
   HX - HEAT INDEX
  VSB - VISIBILITY
$$




USA.gov is the U.S. government's official web portal to all federal, state and local government web resources and services.